Temperature
18 17 17 17 17 17 16 16 16 16 15 15 15 15 15 14 14 14 14 14 14 13 13 13 13 13 13 13 13 13 13 13 13 13 13 13 13 13 13 13 13 13 13
18 18 17 17 17 17 16 16 16 16 15 15 15 15 14 14 14 14 14 14 14 13 13 13 13 13 13 13 13 13 13 13 13 12 12 12 12 13 13 13 13 13 13
18 18 17 17 17 17 16 16 16 15 15 15 15 14 14 14 14 14 14 14 13 13 13 13 13 13 13 13 13 13 13 12 12 12 12 12 12 12 12 12 12 13 13
18 17 17 17 17 16 16 16 16 15 15 15 15 14 14 14 14 14 14 13 13 13 13 13 13 13 13 13 12 12 12 12 12 12 12 12 12 12 12 12 12 12 12
18 17 17 17 17 16 16 16 15 15 15 14 14 14 14 14 14 14 13 13 13 13 13 13 13 13 12 12 12 12 12 12 11 11 11 11 11 11 11 11 11 11 12
18 17 17 17 17 16 16 16 15 15 15 14 14 14 14 14 14 13 13 13 13 12 12 12 12 12 12 12 12 11 11 11 11 11 10 10 10 10 10 10 10 10 10
17 17 17 17 16 16 16 15 15 15 15 14 14 14 14 13 13 13 13 13 12 12 12 12 11 12 12 12 11 11 11 11 10 10 10 10 10 10 10 10 10 10 10
17 17 17 17 16 16 16 15 15 14 14 14 14 13 13 13 13 13 13 13 12 12 12 12 11 11 11 11 11 11 11 10 10 10 10 10 10 10 9 9 9 9 9
17 17 17 16 16 16 16 15 15 14 14 14 13 13 13 13 13 13 13 12 12 12 11 11 11 11 11 11 11 11 11 10 10 10 10 10 10 9 9 9 9 9 9
17 17 17 16 16 16 15 15 14 14 14 13 13 13 13 13 12 12 12 12 12 11 11 11 11 11 10 10 10 10 10 10 10 10 10 10 9 9 9 8 8 8 8
17 17 16 16 16 16 15 15 14 14 13 13 13 13 12 12 12 12 12 12 11 11 11 11 10 10 10 10 10 10 10 9 9 9 9 9 9 9 8 8 8 8 7
17 17 16 16 16 15 15 14 14 14 13 13 12 12 12 12 12 12 11 11 11 11 11 10 10 10 10 10 10 10 9 9 9 9 9 8 8 8 8 8 8 7 7
17 16 16 16 15 15 15 14 14 13 13 13 12 12 12 12 11 11 11 11 11 10 10 10 10 10 10 10 9 9 9 9 8 8 8 8 8 7 7 7 7 7 7
17 16 16 15 15 15 14 14 14 13 13 12 12 12 12 11 11 11 11 10 10 10 10 10 10 9 9 9 9 9 8 8 8 8 7 7 7 7 7 7 6 6 6
16 16 15 15 15 14 14 14 14 13 13 13 12 12 12 11 11 11 10 10 10 10 9 9 9 9 9 9 8 8 8 7 7 7 7 7 7 7 6 6 6 6 5
16 15 15 14 14 14 14 13 13 13 12 12 12 12 11 11 11 10 10 10 9 9 9 9 9 8 8 8 8 8 7 7 7 7 7 6 6 6 6 5 5 5 5
16 15 15 14 14 14 13 13 13 12 12 12 12 11 11 11 11 10 10 9 9 9 8 8 8 8 8 8 7 7 7 7 6 6 6 6 6 5 5 5 5 4 4
15 15 15 14 14 14 13 13 12 12 12 12 12 11 11 11 10 10 10 9 9 9 8 8 8 8 7 7 7 7 7 6 6 6 6 5 5 5 5 4 4 4 4
14 14 14 14 13 13 13 12 12 12 12 11 11 11 11 10 10 10 9 9 9 8 8 8 8 7 7 7 6 6 6 6 6 5 5 5 5 4 4 4 4 4 3
14 14 14 13 13 13 12 12 12 11 11 11 11 11 11 10 10 10 9 9 8 8 8 7 7 7 7 6 6 6 6 5 5 5 5 4 4 4 4 3 3 3 3
13 13 13 13 13 12 12 12 11 11 11 11 11 10 10 10 10 9 9 8 8 8 8 7 7 7 6 6 6 6 5 5 5 4 4 4 4 3 3 3 3 2 2
13 13 12 12 12 12 11 11 11 11 10 10 10 10 9 9 9 9 8 8 8 8 7 7 6 6 6 6 6 5 5 5 4 4 4 3 3 3 3 2 2 2 2
12 12 12 12 11 11 11 10 10 10 10 10 9 9 9 9 9 8 8 8 7 7 7 6 6 6 6 5 5 5 5 4 4 4 3 3 3 2 2 2 2 1 1
11 11 11 11 11 10 10 10 10 9 9 9 9 9 8 8 8 8 8 7 7 7 6 6 6 6 5 5 5 4 4 4 3 3 3 2 2 2 1 1 1 1 0
11 10 10 10 10 10 10 9 9 9 9 9 8 8 8 8 8 7 7 7 6 6 6 6 5 5 5 4 4 4 3 3 3 2 2 2 2 1 1 1 0 0 -0
10 10 10 9 9 9 9 9 9 8 8 8 8 8 8 7 7 7 6 6 6 6 5 5 5 4 4 4 4 3 3 3 2 2 2 1 1 1 0 0 -0 -0 -1
Wind_Speed
6 5 6 4 4 4 4 3 3 3 2 2 3 3 4 4 4 4 3 5 5 4 5 5 5 5 4 5 4 4 4 4 3 3 3 4 5 6 7 10 10 9 9
6 6 6 5 4 4 4 3 2 3 2 2 3 4 5 5 4 4 4 4 4 5 5 5 5 5 5 5 4 5 4 4 3 4 4 4 5 5 5 6 8 11 11
6 6 6 6 5 4 4 3 2 3 3 3 4 5 5 5 5 4 3 4 4 4 5 5 6 6 6 5 5 5 4 5 3 3 4 3 3 4 5 6 7 7 11
7 7 6 6 6 5 4 3 3 3 3 3 4 4 5 5 5 5 5 4 4 4 4 5 5 6 6 6 5 6 5 5 4 4 4 4 3 4 4 4 5 5 7
8 7 6 6 6 5 5 4 3 3 3 3 4 4 5 4 5 6 5 4 4 4 3 3 4 6 7 5 4 4 5 4 4 4 4 4 4 4 4 4 5 5 6
9 8 7 7 7 6 5 4 3 3 3 4 4 5 4 4 7 9 7 5 4 3 3 3 3 4 4 4 5 4 4 3 3 3 3 4 5 5 4 5 5 5 5
10 8 8 7 7 6 6 5 4 3 3 3 3 4 4 4 5 6 7 5 3 3 3 4 4 4 5 4 5 5 4 5 4 2 3 4 5 5 5 5 5 6 6
10 9 9 8 8 6 6 5 4 3 3 2 2 3 3 3 3 3 5 3 3 2 2 2 2 3 5 5 5 5 4 4 4 3 3 5 5 5 5 5 6 6 6
10 10 10 9 8 7 6 5 4 3 3 3 2 2 2 2 2 2 2 2 2 2 1 2 2 3 5 6 5 5 5 6 8 9 9 10 11 12 10 4 4 4 6
10 10 10 9 9 8 7 5 4 3 3 3 3 2 2 2 4 2 1 1 2 2 1 2 3 3 3 4 3 4 5 6 7 8 9 10 10 10 10 4 3 4 5
10 10 9 9 9 8 6 5 5 4 4 3 3 2 3 3 5 4 2 0 2 3 2 1 1 2 3 4 4 3 6 7 6 6 6 6 5 4 4 5 4 3 4
10 10 9 9 9 8 7 6 5 5 5 4 3 3 2 3 5 4 4 3 2 1 2 2 1 4 6 7 6 8 11 9 5 5 5 5 4 4 4 5 8 8 7
11 10 9 9 8 8 7 6 5 5 5 4 4 3 3 3 4 6 6 5 5 3 3 4 6 7 8 7 9 11 9 5 4 4 5 5 4 4 4 4 6 8 9
12 10 9 9 8 8 7 6 5 5 5 4 4 4 3 2 2 3 3 4 5 4 4 5 7 9 9 9 9 7 5 5 4 4 4 5 4 4 4 4 4 5 5
11 10 9 8 8 7 7 6 6 5 6 6 4 4 4 3 4 4 3 3 2 2 2 3 4 4 4 4 4 4 4 3 4 3 4 5 5 5 5 4 4 5 6
10 10 8 7 7 7 6 5 5 6 8 9 7 6 4 6 6 6 5 5 5 4 2 3 4 5 5 5 5 4 4 4 4 4 4 5 5 5 6 5 5 5 6
10 9 7 7 7 7 7 7 5 4 5 7 9 9 8 8 8 7 7 6 6 5 3 5 6 6 5 5 5 5 5 5 4 4 5 5 5 5 6 6 6 6 7
9 10 9 7 7 7 7 7 6 6 5 5 7 11 11 11 11 10 9 5 4 5 5 6 7 6 6 5 5 5 5 5 4 5 5 6 6 6 6 7 7 7 8
8 7 7 6 6 6 6 6 6 7 6 5 4 6 11 12 12 12 9 6 6 7 6 7 7 6 6 5 5 5 5 5 5 5 6 6 6 6 7 7 7 10 9
6 9 8 6 6 6 6 6 6 6 6 6 6 6 6 6 5 6 7 7 8 8 7 7 7 7 6 6 5 5 5 5 6 6 6 6 6 6 7 9 8 8 8
5 7 9 7 6 6 6 6 6 6 6 6 6 7 9 6 7 8 7 7 8 8 8 7 6 6 6 5 5 6 7 6 6 6 6 6 6 6 7 7 8 9 9
5 5 6 6 6 5 5 5 5 6 6 6 4 5 9 6 6 6 6 7 7 7 7 6 6 6 5 6 6 6 6 6 6 6 5 6 6 6 7 7 8 9 9
5 5 5 5 5 6 6 6 5 5 5 5 5 4 5 5 6 6 6 6 6 5 6 5 5 5 6 7 7 5 6 6 5 5 5 6 6 6 7 8 10 12 12
5 6 6 6 5 6 6 6 5 6 6 6 5 5 5 6 6 6 6 5 5 5 5 5 6 7 8 8 8 9 10 10 9 7 7 6 7 8 8 9 11 13 13
5 6 6 6 6 6 6 6 6 6 5 5 5 4 4 5 5 5 5 5 5 5 6 6 6 7 9 10 9 10 11 12 12 10 8 6 8 9 10 12 12 12 13
5 6 5 5 5 5 6 6 6 6 5 5 5 4 4 5 5 5 5 5 5 5 6 6 8 9 9 10 11 12 12 12 12 11 10 7 8 9 10 11 14 13 15
Wind_Direction
159 141 130 129 124 115 98 87 76 77 75 65 61 65 70 76 75 66 47 45 38 34 45 60 50 35 28 22 19 27 25 32 28 353 7 14 18 12 5 2 4 1 354
152 137 134 137 132 125 116 111 104 84 72 64 68 63 61 56 60 68 58 58 52 41 36 44 44 42 33 22 24 24 20 23 32 359 347 2 7 1 1 359 2 359 352
148 148 145 142 139 135 126 120 109 92 82 64 69 69 64 56 53 49 54 61 62 57 50 45 39 39 30 21 26 24 15 15 12 4 346 351 353 357 3 356 357 353 350
152 155 156 150 143 134 119 114 103 95 89 77 72 73 67 57 47 33 30 42 53 61 64 61 52 50 36 19 24 18 15 10 2 2 350 343 341 340 5 355 349 344 338
158 162 163 146 135 125 117 114 96 86 87 82 78 73 71 67 48 35 20 24 36 41 56 80 79 70 54 35 22 11 12 7 358 359 348 344 342 350 350 343 342 329 324
165 164 148 139 133 133 134 131 114 94 79 71 72 76 69 63 57 45 27 7 10 21 24 49 84 71 50 15 358 360 4 3 353 345 337 336 333 337 339 340 334 334 321
163 153 146 145 142 143 141 126 124 120 100 90 88 90 90 79 69 41 19 0 353 13 19 21 34 51 45 21 350 339 328 323 321 312 324 317 319 325 331 329 321 314 301
160 153 152 149 146 144 139 144 153 142 128 127 120 118 115 110 85 43 8 344 331 2 18 30 49 49 40 29 5 356 341 329 319 317 297 296 304 305 304 300 296 304 302
162 159 158 155 153 151 153 159 158 145 144 151 157 152 141 141 136 89 13 322 316 327 354 39 56 69 45 34 16 344 332 324 326 326 314 308 309 310 310 316 319 320 313
163 160 158 155 154 158 161 159 151 148 154 162 166 174 166 151 152 129 38 317 320 328 6 51 61 73 45 30 9 335 320 312 322 325 320 315 311 307 308 291 280 300 305
155 153 153 152 156 157 157 156 156 159 165 179 179 188 183 163 159 155 140 135 321 330 352 5 2 9 355 336 323 291 285 297 303 303 302 302 303 307 311 311 310 288 296
149 150 153 155 162 162 157 165 170 167 174 189 195 205 199 173 166 179 184 203 260 313 310 316 316 323 318 308 297 286 290 299 292 290 295 297 300 302 304 316 313 307 298
151 155 158 160 162 159 163 172 175 177 184 197 198 201 207 188 182 189 201 220 239 244 262 277 290 298 301 293 279 281 286 279 277 278 282 285 286 287 296 305 307 305 303
159 164 166 168 169 170 173 179 181 188 193 197 201 205 204 195 186 188 207 227 242 254 268 282 290 287 280 277 279 277 263 254 256 261 271 276 283 289 289 287 291 296 301
167 171 174 175 174 176 178 184 190 194 191 192 202 201 198 208 210 189 190 211 222 240 278 284 282 282 280 279 281 279 275 277 280 278 279 285 288 290 290 289 284 291 293
175 178 179 176 175 176 176 184 194 192 188 191 194 197 206 203 201 205 212 224 239 249 252 258 265 267 270 275 278 282 281 279 274 276 280 283 286 289 292 293 291 291 291
182 179 177 179 181 183 183 186 193 211 215 211 208 207 208 207 211 216 223 236 247 239 236 249 255 257 260 263 264 267 271 271 273 275 278 280 281 285 289 291 292 291 290
185 183 180 183 184 187 190 193 194 195 207 225 226 221 218 218 222 226 229 236 251 235 231 242 251 254 255 258 261 265 270 277 277 277 278 280 279 280 283 285 285 287 290
187 183 181 181 185 191 193 196 202 206 210 210 207 217 221 225 229 232 225 227 237 242 241 242 247 250 252 254 257 258 261 265 271 274 276 277 277 281 283 283 284 286 287
190 184 181 185 189 195 196 200 205 209 212 213 211 212 202 206 221 229 225 227 235 242 244 244 245 246 247 249 251 254 259 262 267 268 273 277 278 280 284 287 288 287 286
187 187 186 191 197 201 202 205 208 212 217 220 219 209 197 205 217 223 223 225 230 236 241 242 243 245 245 247 250 254 260 263 264 267 271 275 280 283 284 286 289 287 286
190 193 196 199 201 204 205 209 212 216 219 225 225 217 209 211 219 228 230 232 232 231 232 235 240 239 235 239 244 251 258 265 269 271 275 278 280 281 284 286 290 291 289
193 199 204 206 205 207 211 214 214 216 221 222 221 217 216 223 228 232 236 238 237 237 234 234 239 244 247 248 250 247 254 260 260 264 274 278 279 282 284 285 287 291 290
200 206 207 207 208 210 214 217 217 219 221 223 225 224 223 228 233 237 239 240 239 237 238 239 241 248 253 259 264 266 268 269 271 272 273 275 281 284 286 286 285 285 287
205 209 211 211 211 212 216 220 223 225 226 225 225 228 231 232 236 239 239 239 245 246 247 249 251 254 260 265 269 273 277 278 278 277 272 270 276 280 282 284 285 286 286
211 213 216 215 214 215 219 223 227 229 229 230 228 229 232 234 238 240 240 240 243 246 248 249 252 258 265 272 275 280 283 282 281 279 275 273 275 277 280 281 284 284 285
Height
1560 1562 1563 1564 1565 1566 1567 1567 1568 1568 1568 1568 1568 1568 1567 1567 1566 1566 1566 1565 1565 1565 1564 1564 1563 1563 1562 1562 1561 1561 1561 1560 1560 1560 1559 1558 1556 1555 1553 1552 1550 1549 1548
1558 1560 1562 1563 1564 1565 1566 1567 1567 1568 1568 1568 1568 1568 1567 1567 1567 1567 1566 1566 1566 1565 1565 1565 1564 1564 1563 1562 1562 1561 1561 1560 1560 1559 1558 1557 1556 1554 1553 1551 1549 1548 1547
1557 1559 1560 1562 1563 1564 1565 1566 1567 1567 1567 1568 1568 1567 1567 1567 1567 1567 1567 1567 1566 1566 1566 1565 1564 1564 1563 1562 1562 1561 1560 1560 1559 1558 1557 1556 1555 1553 1552 1550 1549 1547 1546
1554 1557 1559 1560 1562 1563 1564 1565 1566 1566 1567 1567 1567 1567 1567 1567 1567 1567 1567 1567 1567 1566 1566 1565 1565 1564 1563 1562 1562 1561 1560 1559 1558 1557 1556 1555 1554 1552 1551 1548 1547 1545 1544
1552 1554 1556 1558 1560 1561 1562 1564 1565 1565 1566 1566 1566 1567 1567 1567 1567 1567 1567 1567 1567 1566 1566 1565 1565 1564 1563 1562 1561 1560 1559 1558 1557 1556 1555 1554 1552 1551 1549 1547 1545 1543 1542
1549 1551 1554 1556 1557 1559 1560 1562 1563 1564 1564 1565 1565 1566 1566 1566 1566 1566 1566 1566 1566 1566 1565 1565 1564 1563 1562 1561 1560 1559 1559 1557 1556 1555 1553 1552 1551 1549 1548 1546 1543 1541 1538
1546 1549 1551 1553 1555 1557 1558 1560 1561 1562 1563 1563 1564 1564 1565 1565 1565 1565 1565 1565 1564 1564 1564 1564 1563 1562 1561 1560 1559 1558 1558 1556 1556 1554 1552 1551 1549 1548 1545 1543 1541 1539 1537
1543 1545 1548 1550 1552 1554 1556 1558 1559 1560 1561 1562 1562 1563 1563 1563 1563 1563 1563 1563 1563 1563 1563 1562 1562 1561 1560 1559 1558 1557 1556 1555 1554 1552 1551 1549 1548 1546 1544 1542 1539 1536 1534
1540 1542 1545 1547 1549 1552 1553 1555 1556 1558 1559 1559 1560 1561 1561 1561 1562 1562 1562 1561 1561 1561 1561 1561 1560 1559 1558 1557 1556 1554 1553 1552 1551 1550 1549 1547 1545 1543 1541 1538 1536 1533 1530
1536 1539 1542 1544 1547 1549 1551 1552 1554 1555 1556 1557 1558 1559 1559 1559 1560 1560 1560 1559 1559 1559 1559 1558 1558 1557 1556 1554 1553 1552 1550 1549 1547 1546 1545 1543 1541 1539 1538 1536 1534 1531 1527
1534 1537 1539 1542 1544 1546 1548 1550 1551 1553 1554 1555 1556 1556 1557 1557 1557 1557 1557 1557 1557 1556 1556 1555 1555 1554 1553 1552 1550 1549 1547 1545 1544 1542 1540 1539 1537 1536 1534 1533 1531 1528 1525
1531 1534 1536 1539 1541 1543 1545 1547 1548 1550 1551 1552 1553 1553 1554 1555 1555 1555 1555 1554 1554 1553 1553 1552 1551 1551 1550 1548 1547 1545 1544 1542 1540 1538 1536 1535 1533 1532 1530 1528 1527 1524 1522
1527 1530 1533 1535 1538 1540 1542 1544 1545 1546 1547 1548 1549 1550 1551 1551 1552 1552 1551 1551 1551 1550 1550 1549 1548 1547 1546 1544 1543 1541 1540 1538 1536 1535 1533 1531 1530 1528 1525 1523 1521 1519 1516
1524 1526 1529 1532 1534 1536 1538 1540 1541 1543 1544 1545 1546 1547 1547 1548 1548 1548 1548 1547 1547 1546 1546 1545 1544 1543 1542 1540 1539 1537 1536 1535 1533 1531 1529 1527 1525 1523 1521 1519 1516 1513 1510
1520 1523 1525 1528 1530 1532 1534 1536 1537 1539 1540 1541 1542 1543 1544 1544 1544 1544 1544 1544 1543 1543 1541 1540 1539 1538 1537 1536 1534 1533 1532 1531 1529 1527 1525 1522 1520 1518 1516 1514 1511 1508 1505
1516 1518 1521 1523 1526 1528 1530 1532 1533 1535 1536 1537 1538 1539 1539 1540 1540 1540 1540 1540 1539 1538 1537 1535 1534 1533 1532 1531 1530 1528 1527 1526 1524 1522 1520 1518 1515 1513 1510 1508 1506 1503 1499
1511 1514 1516 1519 1521 1523 1525 1526 1528 1530 1531 1532 1533 1534 1534 1535 1535 1535 1535 1535 1534 1533 1532 1530 1529 1528 1527 1526 1525 1524 1522 1521 1519 1517 1515 1513 1510 1508 1505 1502 1500 1497 1493
1507 1510 1512 1514 1516 1518 1519 1521 1523 1524 1525 1526 1528 1528 1529 1529 1529 1529 1529 1529 1528 1527 1526 1525 1524 1523 1522 1521 1520 1518 1517 1515 1514 1512 1509 1507 1505 1502 1499 1497 1494 1491 1487
1503 1505 1507 1509 1511 1513 1515 1516 1518 1519 1520 1520 1521 1522 1523 1523 1523 1523 1523 1522 1521 1521 1520 1519 1518 1517 1516 1515 1514 1513 1511 1509 1508 1506 1503 1501 1499 1496 1493 1490 1487 1484 1481
1498 1500 1502 1504 1506 1507 1509 1511 1512 1513 1514 1514 1515 1516 1517 1517 1516 1516 1516 1516 1515 1514 1514 1513 1512 1511 1510 1509 1508 1506 1505 1503 1501 1499 1497 1494 1492 1490 1487 1483 1480 1477 1474
1493 1494 1496 1498 1500 1502 1503 1505 1506 1507 1508 1508 1509 1509 1510 1510 1510 1510 1509 1509 1508 1508 1507 1506 1506 1505 1504 1503 1502 1500 1498 1496 1494 1492 1490 1487 1485 1482 1479 1476 1473 1470 1466
1487 1489 1491 1492 1494 1496 1497 1498 1500 1501 1502 1502 1503 1504 1504 1504 1503 1503 1503 1502 1502 1501 1501 1500 1499 1498 1497 1496 1495 1493 1491 1489 1487 1485 1482 1480 1477 1475 1472 1469 1465 1462 1458
1483 1484 1486 1487 1488 1490 1491 1492 1493 1494 1495 1496 1497 1497 1497 1497 1496 1496 1496 1496 1495 1495 1494 1493 1492 1491 1490 1489 1488 1486 1484 1482 1480 1478 1475 1472 1469 1467 1464 1460 1457 1453 1450
1477 1479 1480 1481 1483 1484 1485 1486 1487 1488 1489 1489 1490 1490 1490 1490 1490 1489 1489 1489 1488 1488 1487 1486 1485 1484 1482 1481 1480 1478 1476 1474 1472 1470 1467 1464 1461 1458 1455 1451 1448 1444 1441
1472 1473 1474 1475 1476 1477 1478 1479 1480 1481 1482 1483 1483 1483 1483 1483 1483 1482 1482 1481 1481 1480 1479 1478 1477 1476 1475 1473 1472 1470 1468 1466 1464 1461 1459 1455 1452 1449 1445 1442 1438 1435 1431
1466 1467 1468 1469 1470 1471 1472 1473 1474 1474 1475 1476 1476 1476 1476 1476 1476 1475 1475 1474 1473 1472 1471 1470 1469 1468 1467 1465 1463 1461 1459 1457 1455 1452 1450 1446 1442 1439 1435 1432 1428 1425 1421